Regional Weather Roundup
Issued by NWS

Home | Current Version | Previous Version | Text Only | Print | Product List | Glossary On
Versions: 1 2 3 4 5 6 7 8 9 10 11 12 13 14 15 16 17 18 19 20 21 22 23 24 25 26 27 28 29 30 31 32 33 34 35 36 37 38 39 40 41 42 43 44 45 46 47 48 49 50
076
ASHW40 PHFO 291943
RWRHI

WEATHER ROUNDUP FOR HAWAII
NATIONAL WEATHER SERVICE HONOLULU HI
900 AM HST FRI JUL 29 2016

THIS IS AN AUTOMATED REPORT THAT HAS NOT BEEN QUALITY CONTROLLED.

NOTE..."FAIR" INDICATES FEW OR NO CLOUDS BELOW 12,000 FEET WITH NO
SIGNIFICANT WEATHER AND/OR OBSTRUCTIONS TO VISIBILITY.

* - THESE SITES REPORT LIMITED FIELDS

HIZ001>004-292000-
KAUAI-NIIHAU-

CITY           SKY/WX    TMP DP  RH WIND       PRES   REMARKS
LIHUE APT      PTSUNNY   82  69  64 NE18      30.08S
PORT ALLEN*      N/A     82 N/A N/A NE14G20     N/A
POIPU*           N/A     79 N/A N/A NE12G24     N/A
PRINCEVILLE*     N/A     79 N/A N/A E9G15       N/A
KOKOLE POINT*    N/A     82 N/A N/A MISG        N/A
MOLOAA DAIRY*    N/A     82  68  61 E3G12       N/A
WAIMEA HTS*      N/A     88  66  48 SW6G12      N/A  HX  90
PUU OPAE*        N/A     79  61  53 E7G13       N/A
PUU LUA*       NOT AVBL
MAKAHA RIDGE*    N/A     79  66  65 N1          N/A
$$

HIZ005>011-292000-
OAHU-

CITY           SKY/WX    TMP DP  RH WIND       PRES   REMARKS
HONOLULU       MOSUNNY   83  64  52 NE14      30.03S
KALAELOA       SUNNY     84  63  49 VRB7G16   30.05S
KANEOHE MCB    CLOUDY    81  67  62 NE15      30.03S
WHEELER FIELD  FAIR      77  66  69 N9        30.07R
BELLOWS*         N/A    N/A N/A N/A NE17G23     N/A
KAHUKU*          N/A    N/A N/A N/A VRB8G17     N/A
WHEELER*         N/A    N/A N/A N/A NE9G17      N/A
WAIANAE HARBOR   N/A    N/A N/A N/A NE7G18      N/A
DILLINGHAM*      N/A     90  70  51 MISG        N/A  HX  95
KAHUKU TRN*      N/A     84  75  74 W10G23      N/A  HX  92
KAWAILOA*        N/A     73  64  73 NE12G22     N/A
KII*             N/A     81  70  69 NE17        N/A
MAKUA RANGE*     N/A     81  64  57 W16G26      N/A
OAHU FOREST NW   N/A     73  64  73 E16G35      N/A
SCHOFIELD BRK*   N/A     70  59  68 MISG        N/A
SCHOFIELD S*   NOT AVBL
WAIANAE VLY*     N/A     84  72  65 W10G31      N/A
KUAOKALA*        N/A     77  66  69 N17G35      N/A
HONOULIUULI*   NOT AVBL
MOKUOLOE IS*   NOT AVBL
PALEHUA*         N/A     70  63  78 NE9G25      N/A
WAIAWA PHB*    NOT AVBL
$$

HIZ012>013-292000-
MOLOKAI-

CITY           SKY/WX    TMP DP  RH WIND       PRES   REMARKS
MOLOKAI AIRPT  PTSUNNY   79  66  64 N12G21    30.05R
KALAUPAPA      NOT AVBL
MAKAPULAPAI*     N/A     82  68  61 NE18G26     N/A
MOLOKAI 1*       N/A     68  61  77 E3G16       N/A
PUU ALII*        N/A     60  60 100 N3G15       N/A
$$

HIZ016-292000-
KAHOOLAWE-

CITY           SKY/WX    TMP DP  RH WIND       PRES   REMARKS
KAHOOLAWE*       N/A     73 N/A N/A N1          N/A
HAKIOAWA*        N/A     77  69  76 MISG      30.44R
HONOKANAIA*      N/A     82  66  59 VRB9G21   29.96R
KANELOA*         N/A     79  64  61 W10       30.06F
KEALIALALO*    NOT AVBL
LUA MAKIKA*    NOT AVBL
$$

HIZ014>015-292000-
LANAI-

CITY           SKY/WX    TMP DP  RH WIND       PRES   REMARKS
LANAI CITY     MOSUNNY   73  64  73 NE17      30.08R
LANAI 1*         N/A     73  64  73 NE18G32     N/A
$$

HIZ017>028-292000-
MAUI-

CITY           SKY/WX    TMP DP  RH WIND       PRES   REMARKS
KAHULUI        MOSUNNY   82  68  62 NE18G26   30.03S
KAPALUA-W MAUI PTSUNNY   77  66  69 N17G29    30.03R
HANA AIRPORT     N/A     77  70  78 NE10      30.08S
HANA*            N/A     77 N/A N/A NE12G18     N/A
HALEAKALA SUMM   N/A     52  32  46 NE20G43     N/A
MAALAEA BAY*     N/A     81 N/A N/A NE22G32     N/A
HALEAKALA*     NOT AVBL
KAUPO GAP*       N/A     73  64  73 S5G12       N/A
KULA 1*          N/A     64  39  40 NW3         N/A
$$

HIZ023>026-292000-
BIG ISLAND OF HAWAII COAST AND LOWER SLOPES-

CITY           SKY/WX    TMP DP  RH WIND       PRES   REMARKS
KAILUA KONA    SUNNY     83  67  58 SW6       29.97R
HILO           PTSUNNY   80  68  66 NW10      30.02S
HONOKAA*         N/A     73 N/A N/A VRB1        N/A
KAWAIHAE MWT*    N/A     82 N/A N/A W6          N/A
KAWAIHAE*        N/A     81 N/A N/A W12       29.96S
SOUTH POINT*     N/A     79 N/A N/A NE12        N/A
UPOLU AIRPORT*   N/A    N/A N/A N/A NE20G25     N/A
KAMUELA*       MOCLDY    73  63  68 NE10G25   30.10S
HAKALAU*         N/A     62  53  73 NE5G12      N/A
KALOKO-HONOKO*   N/A     82  68  61 SW5       29.97R
PALI 2*          N/A     75  59  57 S17G25      N/A
KEALAKOMO*       N/A     81  64  57 VRB21G30    N/A
KAUPULEHU*       N/A     84  59  42 NE13G21     N/A
KAPAPALA*        N/A     78  61  55 SW3         N/A
LOWER KAHUKU*    N/A     70  59  68 SE2         N/A
PUHE CS*         N/A     84  61  45 W3G12       N/A
PUHO CS*         N/A     87  66  49 E2          N/A
PTA KEAMUKU*     N/A     70  55  60 CALM        N/A
WAIKOLOA*        N/A     82  61  47 E20G30      N/A
$$

HIZ027>028-292000-
BIG ISLAND OF HAWAII INTERIOR AND SUMMMITS-

CITY           SKY/WX    TMP DP  RH WIND       PRES   REMARKS
BRADSHAW FIELD SUNNY     66  44  44 SW2       30.31R
MK VISITOR CEN   N/A     57  34  41 W3          N/A
MAUNA KEA*       N/A     45   0  15 SE1         N/A
MAUNA LOA*       N/A    N/A N/A N/A MISG        N/A
MAUNA LOA 1*   NOT AVBL
PTA KIPUKA*      N/A     77  54  44 N2G9        N/A
PTA RANGE 17*    N/A    N/A N/A N/A W3          N/A
PTA WEST*        N/A     70  52  52 W7G13       N/A
NENE CABIN*      N/A     61  48  63 SE3G10      N/A
AHUMOA*          N/A     65  51  60 SW5G10      N/A
PTA PORTABLE*  NOT AVBL
PUU MALI*        N/A     57  54  88 NE18G25     N/A
$$

HIC003-292000-
NORTHWEST ISLANDS-

CITY           SKY/WX    TMP DP  RH WIND       PRES   REMARKS
MIDWAY ISLAND  LGT RAIN  75  72  88 S9        30.15R
MIDWAY NOS*      N/A     75 N/A N/A MISG      30.12F
FRENCH FRIGATE NOT AVBL
$$

PHZ110>124-180-292000-
BUOY REPORTS

STATION/POSITION TIME  TEMP    WIND        PRES    WAVE   SWELL
                       AIR SEA DIR/SP/G            HT/PER HT/DIR
                 (UTC) (F)     (DEG/KT/KT) (MB)    (FT/S) (FT/D)
BUOY 51001       1900   81 82   90/ 16/ 19 1017.5R
BUOY 51101       1850   79 79   60/ 14/ 16 1020.2R   7/ 8   5/110
BUOY 51100       NOT AVBL
BUOY 51002       1850   82 82   90/ 16/ 17 1014.4R   7/ 8   5
BUOY 51003       1850   81 82   60/ 17/ 21 1015.5R   9/ 8   5/160
BUOY 51004       1850   79 81   60/ 12/ 16 1014.5R   6/ 9   5/ 90
BARBERS PT BUOY  NOT AVBL
WAIMEA BAY BUOY  1904      80                N/A     5/ 8
KAILUA BAY BUOY  1911      80                N/A     7/ 8   2/ 60
LANAI BUOY       1915      81                N/A     3/13   2/200
BARBERS PT 2     NOT AVBL
PAUWELA MAUI     1909      80                N/A     6/ 8   2/ 80
HILO             1912      80                N/A     7/ 8   2/ 80
KANEOHE BAY BUOY 1906      79                N/A     6/ 8   2/ 60
HANALEI KAUAI    NOT AVBL
KAHULUI HARBOR   1900   78 80   30/ 16/ 20 1017.0R
HONOLULU HARBOR  1900   79 80   30/  7/ 11 1017.8R
KILO NALU        NOT AVBL
HILO HARBOR      1900   78 79  320/  8/ 11 1016.2R
MOKUOLOE         1800   80 82   60/ 13/ 16 1017.6R
NAWILIWILI       1900      82                N/A
WHOTS BUOY       NOT AVBL
BUOY 51028       NOT AVBL
$$

......................KEY........................................
  SKY/WX - SKY CONDITIONS/PRESENT WEATHER
  TMP    - TEMPERATURE IN FAHRENHEIT
  DWPT   - DEWPOINT IN FAHRENHEIT
  RH     - RELATIVE HUMIDITY IN PERCENT
  WIND   - DIRECTION AND SPEED /MPH FOR ISLANDS...KTS FOR BUOYS/
  PRES   - MEAN SEA LEVEL PRESSURE IN INCHES OF HG
  VSB    - VISIBILITY IN MILES
  HX     - HEAT INDEX
  WCI    - WIND CHILL INDEX
  VRB    - VARIABLE WIND DIRECTION
  N/A    - NOT AVAILABLE




USA.gov is the U.S. government's official web portal to all federal, state and local government web resources and services.